Погода в Ла-Пасе

Боливия     16°29′09″S   68°09′57″W
темп.,
°C
ветер,
м/с
пор.,
м/с
влажн.,
%
обл.,
%
осадки,
мм/ч
давл.,
гПа
погр.,
м
27 июля, вт
вт2723:00+4юв34622 0.0 102073
02:00+2ю11790 0.0 102110
05:00+1с11715 0.0 102110
08:00+4юз00530 0.0 102256
11:00+9юз33383 0.0 10191284
14:00+12зсз810297 0.0 10142387
17:00+11зсз89271 0.0 10121545
20:00+6св224925 0.0 101632
28 июля, ср
ср2823:00+4в22724 0.0 102152
02:00+2юв11891 0.0 102114
05:00+1ссз118420 0.0 102010
08:00+3зсз23687 0.0 1022128
11:00+9з464931 0.0 10191384
14:00+12зсз893480 0.0 10121797
17:00+10зсз79394 0.0 10121266
20:00+6в456436 0.0 1016146
29 июля, чт
чт2923:00+3в34806 0.0 1021140
02:00+2в228212 0.0 102078
05:00+1ююз228878 0.0 102017
08:00+3вюв018299 0.0 1022211
11:00+7з245990 0.1 1020860
14:00+12зсз8103776 0.1 10132140
17:00+10зсз663696 0.0 10121252
20:00+6вюв445933 0.0 101695
30 июля, пт
пт3023:00+3вюв347889 0.0 1020110
02:00+2вюв238442 0.0 102173
05:00+1в2288100 0.0 102131
08:00+2вюв1182100 0.0 1023102
11:00+8ююз235385 0.0 10181038
14:00+12юз354098 0.1 10121900
17:00+10св3445100 0.1 1011940
20:00+3всв458070 0.1 1018238
31 июля, сб
сб3123:00+3вюв347964 0.1 1021191
02:00+2юв238098 0.2 1020102
05:00+1в228794 0.0 1022112
08:00+3вюв2277100 0.0 1023279
11:00+6юз2461100 0.0 1021794
14:00+8ююз265494 0.1 10161199
17:00+11з5837100 0.1 10121820
20:00+4всв3479100 1.1 1021264